SL-12 DEB, 41562

Orbit data source: Space-Track

SL-12 DEB, 41562 is space debris in HEO originally from a launch on Thu, 25 Dec 2008 UTC launched from the Tyuratam Missile And Space Complex (TTMTR). Debris objects in space refer to the collection of defunct objects orbiting the Earth. Examples of debris include non-operational satellites, rocket bodies, and fragments generated from explosions, collisions, or faulty payload assembly.

Loading next visibility...
Identifier
41562, 2008-067L
Orbit
HEO
Country
Flag of CISCIS
Related business
Manufacturer
RKKE
Mission
Spacecraft
Bus & Motor
Unknown
Mass
Unknown
Launch date (UTC)
2008-12-25 (17 years ago)
Launch vehicle
Unknown
Launch site
Tyuratam Missile And Space Complex (TTMTR)
Object type
Payload
Rocket body
Debris
Shape & HBR
Unknown shape, 0.1 m
Radar Cross Section
Small (<0.1 m²)

Expand to show TLE details & history
Last TLE update: 1 month ago

TLE from 1 month ago
0 SL-12 DEB
1 41562U 08067L   25257.66685780  .00000153  00000-0  21106-2 0  9997
2 41562  65.3886 299.2709 5582871 255.6492  39.1156  4.21162681145379
Epoch: 2025-09-14T16:00Z
TLE epoch observation values (Epoch: 2025-09-14T16:00:16.513Z)
Latitude
-0.00002°
Longitude
65.33595°
Altitude
6,577.545 km
Speed
6.077 km/s
True Right ascension
19h 57m 08s
True Declination
0° 00' 00"
Sunlit
Object was in daylight at epoch
Visualization orbit readout
Latitude
Unknown
Longitude
Unknown
Altitude
Unknown
Speed
Unknown
Apparent Right ascension
Unknown
Apparent Declination
Unknown
Sunlit
N/A
Visualization observer readout
Local Sidereal Time
19:09:04
Azimuth
Unknown
Elevation
Unknown
Doppler factor
Unknown
Orbital elements
Apogee altitude
18,859.714 km
Perigee altitude
775.798 km
Semi-major axis
16,195.893 km
Eccentricity
0.55829
Inclination
65.3886°
RAAN
299.2709°
Arg. of periapsis
255.6492°
True anomaly
104.44498°
Mean anomaly
39.1156°
Eccentric anomaly
68.97312°
Mean motion
1.05302 °/min
Orbital period
341.87 mins
BSTAR
0.0021106
Loading maneuver chart data...
Computing Atmospheric mass density...
Loading historical data...
Loading historical data...
Loading historical data...
Loading historical data...
Loading historical data...
Loading historical data...
Loading historical data...

Documentation

Showing up to 5 results
|